This is the latest recevied weather packets stored in our database for station/object KD4MBW. If no packets are shown the sender has not sent any weather packets the latest 10 day(s).
| Time | Temp. | Humidity | Pressure | Rain* | Wind** | Luminosity | Snow |
|---|---|---|---|---|---|---|---|
| 1787781947 | 31.11° C | 80% | 1014.2 hPa | 0 mm | - | 307 W/m² | - |
| 1787781642 | 31.11° C | 79% | 1014.3 hPa | 0 mm | - | 315 W/m² | - |
| 1787781333 | 31.11° C | 81% | 1014.4 hPa | 0 mm | - | 342 W/m² | - |
| 1787781032 | 30.56° C | 82% | 1014.1 hPa | 0 mm | - | 362 W/m² | - |
| 1787780721 | 30° C | 81% | 1014.4 hPa | 0 mm | - | 332 W/m² | - |
| 1787780421 | 30° C | 83% | 1014.5 hPa | 0 mm | - | 180 W/m² | - |
| 1787780117 | 30° C | 84% | 1014.8 hPa | 0 mm | - | 281 W/m² | - |
| 1787779818 | 30° C | 83% | 1014.9 hPa | 0 mm | - | 219 W/m² | - |
| 1787779511 | 30° C | 84% | 1015 hPa | 0 mm | - | 479 W/m² | - |
| 1787779206 | 29.44° C | 85% | 1015 hPa | 0 mm | - | 300 W/m² | - |
| 1787778906 | 29.44° C | 86% | 1015.1 hPa | 0 mm | - | 204 W/m² | - |
| 1787778601 | 29.44° C | 87% | 1014.9 hPa | 0 mm | - | 184 W/m² | - |
| 1787778297 | 29.44° C | 88% | 1015 hPa | 0 mm | - | 147 W/m² | - |
| 1787777992 | 29.44° C | 89% | 1014.7 hPa | 0 mm | - | 126 W/m² | - |
| 1787777687 | 28.89° C | 88% | 1014.8 hPa | 0 mm | - | 129 W/m² | - |
| 1787777383 | 28.89° C | 89% | 1014.9 hPa | 0 mm | - | 128 W/m² | - |
| 1787777083 | 28.89° C | 88% | 1014.9 hPa | 0 mm | - | 128 W/m² | - |
| 1787776782 | 28.89° C | 88% | 1015.2 hPa | 0 mm | - | 139 W/m² | - |
| 1787776481 | 29.44° C | 88% | 1015.1 hPa | 0 mm | - | 132 W/m² | - |
| 1787776178 | 29.44° C | 86% | 1015 hPa | 0 mm | - | 119 W/m² | - |
| 1787775872 | 29.44° C | 86% | 1015.3 hPa | 0 mm | - | 111 W/m² | - |
| 1787775568 | 29.44° C | 85% | 1015.2 hPa | 0 mm | - | 113 W/m² | - |
| 1787775266 | 29.44° C | 85% | 1015.5 hPa | 0 mm | - | 108 W/m² | - |
| 1787774961 | 29.44° C | 85% | 1015.3 hPa | 0 mm | - | 104 W/m² | - |
| 1787774660 | 29.44° C | 84% | 1015.2 hPa | 0 mm | - | 99 W/m² | - |
* Rain latest hour (hover to see other rain measurements)
** Current wind speed in m/s (hover to see current wind gust speed)